sat.trackr.live / text

‹ back to catalog

STARLINK-5205

NORAD 54202 · 2022-141AX

PAYLOAD ACTIVE UNKNOWN

§ Identity

Operator
Country
US
Launch date
2022-10-28
Launch site
AFWTR
Launch vehicle
Mass (kg)
RCS (m²)

Purposes: comms

External: N2YO · Heavens-Above · Gunter

§ Orbital elements

Epoch: 2026-05-25T00:10:14.348064Z

Period
95.44 min
Inclination
53.2148°
Eccentricity
0.0001377
Mean motion
15.08838069 rev/d
Perigee alt
538.8 km
Apogee alt
540.7 km
Semi-major
6,917.9 km
B*
6.1352e-5
RAAN
11.2036°
Arg perigee
87.5449°
Mean anomaly
272.5701°
Rev number
19,752

§ Raw data

STARLINK-52051 54202U 22141AX  26145.00711051  .00000689  00000+0  61352-4 0  99992 54202  53.2148  11.2036 0001377  87.5449 272.5701 15.08838069197522

JSON: /api/v1/satellites/54202 · /tle

For live sub-satellite position, see the globe view (requires WebGL).

§ Visibility from observer

Set your observer location to see the next 7 days of passes ≥ 10°. The values pass through the URL so the page stays shareable.

No JS? Fill the form by hand. The geolocation button needs JavaScript.